�������l�o���
Date,Time,MP-1(��Sv/h),MP-2(��Sv/h),MP-3(��Sv/h),MP-4(��Sv/h),MP-5(��Sv/h),MP-6(��Sv/h),MP-7(��Sv/h),����,����(m/s),���J
2017/06/10,00:00,0.370,0.231,0.397,0.365,0.328,0.192,0.119,��쐼,0.6,��
2017/06/10,00:10,0.369,0.231,0.396,0.368,0.329,0.191,0.118,�k��,1.2,��
2017/06/10,00:20,0.367,0.231,0.395,0.366,0.330,0.191,0.118,���k��,3.1,��
2017/06/10,00:30,0.366,0.230,0.396,0.366,0.328,0.190,0.118,���k��,3.8,��
2017/06/10,00:40,0.369,0.231,0.398,0.365,0.328,0.191,0.118,��,3.8,��
2017/06/10,00:50,0.368,0.229,0.395,0.363,0.329,0.190,0.117,���k��,2.5,��
2017/06/10,01:00,0.368,0.229,0.398,0.366,0.330,0.191,0.117,���k��,1.9,��
2017/06/10,01:10,0.367,0.230,0.394,0.365,0.327,0.190,0.117,�k��,1.9,��
2017/06/10,01:20,0.369,0.228,0.398,0.364,0.329,0.190,0.117,��,1.1,��
2017/06/10,01:30,0.368,0.231,0.396,0.364,0.326,0.191,0.117,���쓌,2.2,��
2017/06/10,01:40,0.369,0.230,0.398,0.367,0.330,0.189,0.118,���쓌,3.4,��
2017/06/10,01:50,0.367,0.230,0.396,0.364,0.328,0.189,0.118,��,3.0,��
2017/06/10,02:00,0.371,0.229,0.396,0.365,0.328,0.189,0.118,���쓌,2.5,��
2017/06/10,02:10,0.368,0.230,0.394,0.364,0.327,0.190,0.117,��,2.1,��
2017/06/10,02:20,0.369,0.231,0.397,0.366,0.329,0.189,0.117,���쓌,1.8,��
2017/06/10,02:30,0.366,0.229,0.396,0.363,0.328,0.190,0.118,��,0.8,��
2017/06/10,02:40,0.369,0.231,0.395,0.366,0.328,0.190,0.117,��쓌,1.2,��
2017/06/10,02:50,0.366,0.229,0.398,0.365,0.328,0.190,0.117,��,1.4,��
2017/06/10,03:00,0.369,0.229,0.395,0.366,0.328,0.190,0.117,��쓌,0.7,��
2017/06/10,03:10,0.366,0.230,0.397,0.364,0.328,0.190,0.118,���k��,1.1,��
2017/06/10,03:20,0.368,0.228,0.393,0.367,0.326,0.190,0.118,��,0.8,��
2017/06/10,03:30,0.368,0.231,0.398,0.365,0.329,0.189,0.117,���k��,0.7,��
2017/06/10,03:40,0.368,0.230,0.396,0.366,0.327,0.190,0.117,��,0.5,��
2017/06/10,03:50,0.368,0.229,0.396,0.366,0.332,0.190,0.117,���k��,0.8,��
2017/06/10,04:00,0.367,0.229,0.395,0.366,0.327,0.189,0.118,�k��,1.1,��
2017/06/10,04:10,0.367,0.231,0.396,0.365,0.330,0.189,0.117,�k��,1.1,��
2017/06/10,04:20,0.367,0.230,0.396,0.363,0.327,0.190,0.118,�k�k��,2.5,��
2017/06/10,04:30,0.368,0.231,0.396,0.366,0.330,0.190,0.118,�k��,2.8,��
2017/06/10,04:40,0.367,0.230,0.396,0.366,0.326,0.190,0.117,�k�k��,3.9,��
2017/06/10,04:50,0.367,0.230,0.394,0.367,0.328,0.190,0.119,�k�k��,3.4,��
2017/06/10,05:00,0.367,0.229,0.398,0.364,0.328,0.189,0.117,�k�k��,2.8,��
2017/06/10,05:10,0.369,0.231,0.395,0.367,0.328,0.190,0.118,�k�k��,1.5,��
2017/06/10,05:20,0.368,0.228,0.396,0.365,0.328,0.189,0.117,�k�k��,1.7,��
2017/06/10,05:30,0.371,0.229,0.395,0.366,0.328,0.189,0.117,�k�k��,1.6,��
2017/06/10,05:40,0.365,0.229,0.397,0.364,0.329,0.189,0.117,�k,1.8,��
2017/06/10,05:50,0.369,0.230,0.394,0.366,0.328,0.189,0.117,�k,2.9,��
2017/06/10,06:00,0.366,0.229,0.396,0.364,0.326,0.190,0.117,��,1.4,��
2017/06/10,06:10,0.370,0.230,0.396,0.366,0.327,0.189,0.117,��,1.1,��
2017/06/10,06:20,0.365,0.229,0.397,0.364,0.325,0.190,0.117,�k��,0.9,��
2017/06/10,06:30,0.370,0.230,0.396,0.367,0.329,0.189,0.118,�k��,2.1,��
2017/06/10,06:40,0.367,0.230,0.396,0.364,0.325,0.190,0.117,�k�k��,0.7,��
2017/06/10,06:50,0.370,0.229,0.394,0.365,0.327,0.190,0.116,-,CALM,��
2017/06/10,07:00,0.368,0.230,0.399,0.361,0.327,0.190,0.117,��쐼,1.9,��
2017/06/10,07:10,0.367,0.232,0.393,0.365,0.326,0.190,0.118,��,2.4,��
2017/06/10,07:20,0.369,0.230,0.392,0.365,0.328,0.191,0.118,��쓌,2.9,��
2017/06/10,07:30,0.364,0.228,0.395,0.361,0.326,0.190,0.117,��,2.7,��
2017/06/10,07:40,0.370,0.227,0.393,0.366,0.328,0.191,0.117,��쓌,3.4,��
2017/06/10,07:50,0.366,0.229,0.392,0.365,0.329,0.190,0.118,��,4.2,��
2017/06/10,08:00,0.364,0.230,0.390,0.362,0.326,0.189,0.117,��쓌,4.2,��
2017/06/10,08:10,0.366,0.228,0.389,0.360,0.324,0.190,0.116,��,4.1,��
2017/06/10,08:20,0.368,0.228,0.396,0.361,0.329,0.189,0.116,��,3.2,��
2017/06/10,08:30,0.365,0.228,0.395,0.365,0.328,0.189,0.115,��,2.3,��
2017/06/10,08:40,0.365,0.226,0.393,0.362,0.325,0.189,0.116,��,3.8,��
2017/06/10,08:50,0.370,0.227,0.392,0.362,0.323,0.189,0.118,��,3.4,��
2017/06/10,09:00,0.367,0.227,0.391,0.362,0.324,0.190,0.118,��,1.3,��
2017/06/10,09:10,0.364,0.227,0.391,0.362,0.324,0.189,0.117,��쓌,2.5,��
2017/06/10,09:20,0.365,0.230,0.394,0.360,0.328,0.189,0.116,��쓌,1.8,��
2017/06/10,09:30,0.369,0.229,0.398,0.360,0.331,0.190,0.118,��쓌,1.2,��
2017/06/10,09:40,0.368,0.229,0.395,0.367,0.329,0.190,0.118,�쓌,1.2,��
2017/06/10,09:50,0.366,0.228,0.394,0.367,0.327,0.189,0.117,��쓌,2.5,��
2017/06/10,10:00,0.370,0.231,0.398,0.364,0.331,0.190,0.117,��쓌,4.1,��
2017/06/10,10:10,0.371,0.232,0.399,0.361,0.329,0.190,0.118,��쓌,4.3,��
2017/06/10,10:20,0.367,0.230,0.395,0.366,0.326,0.189,0.117,��,4.5,��
2017/06/10,10:30,0.365,0.229,0.392,0.367,0.327,0.189,0.117,��쓌,5.0,��
2017/06/10,10:40,0.363,0.227,0.390,0.365,0.324,0.189,0.117,��,4.8,��
2017/06/10,10:50,0.364,0.229,0.391,0.363,0.328,0.190,0.117,��,5.0,��
2017/06/10,11:00,0.370,0.231,0.399,0.360,0.330,0.189,0.118,��,5.0,��
2017/06/10,11:10,0.369,0.230,0.396,0.362,0.328,0.189,0.117,��,6.0,��
2017/06/10,11:20,0.365,0.228,0.395,0.363,0.327,0.190,0.117,��,8.6,��
2017/06/10,11:30,0.365,0.228,0.394,0.362,0.327,0.189,0.116,��,10.2,��
2017/06/10,11:40,0.363,0.228,0.393,0.360,0.325,0.190,0.117,��,10.5,��
2017/06/10,11:50,0.363,0.229,0.392,0.363,0.324,0.190,0.117,��,11.6,��
2017/06/10,12:00,0.364,0.230,0.392,0.364,0.328,0.189,0.118,��,12.1,��
2017/06/10,12:10,0.367,0.229,0.394,0.364,0.326,0.190,0.119,��,11.4,��
2017/06/10,12:20,0.372,0.229,0.391,0.365,0.326,0.190,0.118,��,15.1,��
2017/06/10,12:30,0.370,0.229,0.394,0.365,0.326,0.189,0.117,��,11.8,��
2017/06/10,12:40,0.367,0.229,0.394,0.366,0.326,0.191,0.117,��,11.7,��
2017/06/10,12:50,0.366,0.229,0.393,0.369,0.329,0.190,0.119,��,12.8,�L
2017/06/10,13:00,0.366,0.233,0.397,0.367,0.331,0.190,0.118,��,11.5,�L
2017/06/10,13:10,0.372,0.233,0.400,0.366,0.327,0.191,0.116,��,11.2,��
2017/06/10,13:20,0.370,0.230,0.397,0.368,0.327,0.192,0.118,��,12.9,�L
2017/06/10,13:30,0.368,0.233,0.394,0.369,0.333,0.191,0.118,��쐼,13.2,�L
2017/06/10,13:40,0.373,0.232,0.402,0.367,0.331,0.193,0.119,��쐼,11.8,�L
2017/06/10,13:50,0.373,0.234,0.402,0.373,0.332,0.196,0.122,��쐼,9.1,�L
2017/06/10,14:00,0.376,0.242,0.405,0.372,0.336,0.195,0.122,��쐼,4.3,�L
2017/06/10,14:10,0.380,0.240,0.406,0.374,0.333,0.198,0.124,���쐼,1.3,�L
2017/06/10,14:20,0.376,0.243,0.400,0.375,0.338,0.198,0.124,�k�k��,1.1,�L
2017/06/10,14:30,0.377,0.241,0.403,0.369,0.331,0.195,0.122,�k,1.2,��
2017/06/10,14:40,0.373,0.236,0.398,0.369,0.330,0.196,0.123,-,CALM,�L
2017/06/10,14:50,0.368,0.237,0.393,0.369,0.332,0.195,0.122,-,CALM,�L
2017/06/10,15:00,0.373,0.236,0.397,0.365,0.330,0.192,0.121,��쐼,0.9,��
2017/06/10,15:10,0.369,0.231,0.394,0.363,0.326,0.192,0.120,���k��,0.8,��
2017/06/10,15:20,0.364,0.232,0.391,0.365,0.323,0.192,0.120,�k��,0.9,��
2017/06/10,15:30,0.367,0.232,0.392,0.359,0.328,0.191,0.118,�k��,1.5,��
2017/06/10,15:40,0.366,0.228,0.392,0.360,0.326,0.190,0.119,�k��,1.4,��
2017/06/10,15:50,0.363,0.230,0.388,0.362,0.322,0.191,0.119,�k�k��,4.4,�L
2017/06/10,16:00,0.367,0.229,0.393,0.357,0.327,0.190,0.119,�k�k��,6.7,�L
2017/06/10,16:10,0.364,0.228,0.390,0.362,0.326,0.190,0.121,�k�k��,6.7,�L
2017/06/10,16:20,0.365,0.229,0.391,0.360,0.327,0.192,0.119,�k�k��,4.4,�L
2017/06/10,16:30,0.367,0.228,0.393,0.360,0.327,0.190,0.121,�k,3.5,��
2017/06/10,16:40,0.362,0.229,0.388,0.360,0.324,0.190,0.120,�k�k��,5.9,��
2017/06/10,16:50,0.366,0.227,0.392,0.355,0.326,0.190,0.119,�k�k��,5.3,��
2017/06/10,17:00,0.363,0.228,0.389,0.359,0.326,0.189,0.119,�k�k��,2.0,��
2017/06/10,17:10,0.362,0.227,0.389,0.357,0.322,0.190,0.118,�k��,3.4,��
2017/06/10,17:20,0.365,0.227,0.386,0.358,0.327,0.188,0.118,�k�k��,4.3,��
2017/06/10,17:30,0.360,0.227,0.387,0.359,0.325,0.189,0.117,�k,5.9,��
2017/06/10,17:40,0.366,0.225,0.391,0.357,0.324,0.188,0.117,�k��,4.5,��
2017/06/10,17:50,0.362,0.226,0.386,0.358,0.325,0.188,0.118,�k�k��,2.9,��
2017/06/10,18:00,0.364,0.224,0.390,0.354,0.323,0.188,0.117,�k��,4.4,��
2017/06/10,18:10,0.364,0.226,0.385,0.359,0.326,0.187,0.117,�k�k��,3.9,��
2017/06/10,18:20,0.362,0.225,0.391,0.356,0.322,0.187,0.117,�k�k��,8.5,�L
2017/06/10,18:30,0.365,0.226,0.389,0.359,0.325,0.188,0.118,�k��,7.3,�L
2017/06/10,18:40,0.363,0.227,0.390,0.357,0.323,0.189,0.116,�k��,6.1,�L
2017/06/10,18:50,0.366,0.227,0.389,0.358,0.324,0.189,0.118,�k��,7.9,�L
2017/06/10,19:00,0.363,0.228,0.391,0.357,0.325,0.190,0.118,���k��,10.1,�L
2017/06/10,19:10,0.365,0.226,0.388,0.360,0.325,0.190,0.119,���k��,11.3,��
2017/06/10,19:20,0.363,0.227,0.391,0.358,0.325,0.189,0.118,�k��,12.9,��
2017/06/10,19:30,0.366,0.226,0.388,0.359,0.325,0.189,0.118,�k��,14.7,�L
2017/06/10,19:40,0.365,0.226,0.392,0.359,0.325,0.189,0.118,���k��,17.1,�L
2017/06/10,19:50,0.365,0.227,0.389,0.358,0.324,0.189,0.119,���k��,15.2,��
2017/06/10,20:00,0.364,0.225,0.391,0.357,0.324,0.189,0.117,���k��,13.4,��
2017/06/10,20:10,0.365,0.228,0.389,0.358,0.325,0.188,0.119,���k��,9.4,��
2017/06/10,20:20,0.365,0.228,0.393,0.357,0.325,0.189,0.117,���k��,11.2,��
2017/06/10,20:30,0.365,0.226,0.389,0.358,0.325,0.189,0.117,���k��,11.8,��
2017/06/10,20:40,0.364,0.225,0.391,0.356,0.323,0.189,0.118,���k��,12.4,��
2017/06/10,20:50,0.368,0.226,0.390,0.360,0.325,0.188,0.117,���k��,9.0,��
2017/06/10,21:00,0.366,0.227,0.391,0.357,0.323,0.190,0.117,���k��,7.5,��
2017/06/10,21:10,0.367,0.227,0.390,0.359,0.326,0.187,0.117,���k��,7.8,��
2017/06/10,21:20,0.365,0.227,0.390,0.358,0.325,0.189,0.118,���k��,11.8,��
2017/06/10,21:30,0.368,0.227,0.391,0.360,0.327,0.188,0.117,���k��,8.2,��
2017/06/10,21:40,0.365,0.228,0.390,0.357,0.324,0.188,0.117,�k��,5.9,��
2017/06/10,21:50,0.369,0.228,0.390,0.358,0.325,0.189,0.117,�k��,6.8,��
2017/06/10,22:00,0.365,0.228,0.390,0.358,0.324,0.189,0.117,�k��,5.3,��
2017/06/10,22:10,0.369,0.228,0.394,0.360,0.323,0.190,0.118,�k�k��,5.9,��
2017/06/10,22:20,0.367,0.227,0.390,0.357,0.324,0.188,0.117,�k,4.8,��
2017/06/10,22:30,0.366,0.228,0.391,0.358,0.323,0.188,0.117,�k�k��,7.0,��
2017/06/10,22:40,0.365,0.227,0.392,0.359,0.325,0.188,0.118,�k��,6.2,��
2017/06/10,22:50,0.367,0.227,0.390,0.357,0.324,0.189,0.117,�k��,5.7,��
2017/06/10,23:00,0.365,0.226,0.391,0.359,0.326,0.189,0.117,�k�k��,4.5,��
2017/06/10,23:10,0.367,0.227,0.389,0.358,0.323,0.189,0.117,�k,4.2,��
2017/06/10,23:20,0.365,0.228,0.390,0.360,0.324,0.190,0.117,�k�k��,3.3,��
2017/06/10,23:30,0.366,0.226,0.389,0.358,0.324,0.188,0.117,�k,3.6,��
2017/06/10,23:40,0.365,0.227,0.392,0.359,0.325,0.189,0.117,�k,4.1,��
2017/06/10,23:50,0.367,0.227,0.389,0.357,0.325,0.189,0.117,�k�k��,3.9,��
